Regional Weather Roundup
Issued by NWS

Home | Current Version | Previous Version | Graphics & Text | Print | Product List | Glossary On
Versions: 1 2 3 4 5 6 7 8 9 10 11 12 13 14 15 16 17 18 19 20 21 22 23 24 25 26 27 28 29 30 31 32 33 34 35 36 37 38 39 40 41 42 43 44 45 46 47 48 49 50
000
ASUS43 KFSD 311102
RWRSD

WEATHER ROUNDUP FOR SOUTH DAKOTA
NATIONAL WEATHER SERVICE SIOUX FALLS SD
600 AM CDT WED AUG 31 2016

NOTE: "FAIR" INDICATES FEW OR NO CLOUDS BELOW 12,000 FEET WITH NO
SIGNIFICANT WEATHER AND/OR OBSTRUCTIONS TO VISIBILITY.


SDZ001>005-009-010-012>017-311200-
NORTHWEST AND NORTH CENTRAL SOUTH DAKOTA

CITY           SKY/WX    TMP DP  RH WIND       PRES   REMARKS
BUFFALO          N/A     60  58  92 SE7       30.07S
MOBRIDGE       CLEAR     67  61  81 E14       30.16R
$$

SDZ012>016-024>037-041>051-057-063-072>074-311200-
SOUTHWEST AND SOUTH CENTRAL SOUTH DAKOTA

CITY           SKY/WX    TMP DP  RH WIND       PRES   REMARKS
RAPID CTY ARPT CLEAR     58  54  86 E3        30.17S
PIERRE         CLEAR     65  62  90 SE8       30.14F
CUSTER         CLEAR     56  51  84 W3        30.31F
ELLSWORTH AFB  CLEAR     62  55  77 S6        30.16S
PHILIP         CLEAR     66  60  81 SW8       30.14F
PINE RIDGE     CLEAR     57  57 100 S6        30.23R
WINNER         FAIR      64  62  93 E5        30.19S
$$

SDZ004>011-016>023-039-040-311200-
NORTHEAST SOUTH DAKOTA

CITY           SKY/WX    TMP DP  RH WIND       PRES   REMARKS
ABERDEEN       LGT RAIN  61  58  90 NE5       30.22R
WATERTOWN      CLEAR     57  54  89 CALM      30.23S
SISSETON         N/A     54  51  90 CALM      30.21S
$$

SDZ017-020-022-023-036>040-048>070-311200-
SOUTHEAST SOUTH DAKOTA

CITY           SKY/WX    TMP DP  RH WIND       PRES   REMARKS
SIOUX FALLS    PTCLDY    58  57  97 CALM      30.23R
HURON          CLOUDY    65  61  87 SE8       30.20F
CHAMBERLAIN    CLEAR     65  65 100 SE6       30.19S
MITCHELL       PTCLDY    63  61  93 SE7       30.20F
YANKTON          N/A     63  61  94 E6        30.20S VSB 1/4
$$

ABBREVIATIONS USED IN REMARKS
   TC - TEMPERATURE IN CELSIUS
  WCI - WIND CHILL INDEX
   HX - HEAT INDEX
  VSB - VISIBILITY




USA.gov is the U.S. government's official web portal to all federal, state and local government web resources and services.